This demonstration page uses our WeatherBlox Daily Observations layout. Learn more.

Left ArrowRight Arrow

39.08367, -84.50855

Hourly Observations for February 23, 2016

Temp ( °F °C ) Dew Point ( °F °C ) Humidity (%) Winds ( mph kmh ) Pressure ( in mb ) Visibility ( mi km ) Precip ( " mm )
12:53 am 00:53 Clear 36 2.2 30 -1.1 79 79 NNE 6 9 30.05 1018 10 16 N/A
1:53 am 01:53 Clear 36 2.2 30 -1.1 79 79 NNE 8 13 30.05 1018 10 16 N/A
2:53 am 02:53 Clear 34 1.1 29 -1.7 82 82 NNE 9 15 30.05 1018 10 16 N/A
3:53 am 03:53 Clear 32 undefined 28 -2.2 85 85 NNE 8 13 30.04 1017 10 16 N/A
4:53 am 04:53 Clear 32 undefined 27 -2.8 82 82 NNE 6 9 30.03 1017 10 16 N/A
5:53 am 05:53 Clear 31 -0.6 26 -3.3 82 82 NNE 7 11 30.04 1017 10 16 N/A
6:53 am 06:53 Clear 30 -1.1 25 -3.9 82 82 NE 7 11 30.03 1017 10 16 N/A
7:53 am 07:53 Sunny 31 -0.6 26 -3.3 82 82 NE 6 9 30.01 1016 10 16 N/A
8:53 am 08:53 Sunny 36 2.2 27 -2.8 70 70 NNE 6 9 30.05 1018 10 16 N/A
8:57 am 08:57 Partly Cloudy 37 3 27 -3 65 65 NNE 7 11 30.03 1017 10 16 N/A
9:53 am 09:53 Partly Cloudy 39 3.9 29 -1.7 67 67 NE 9 15 30.05 1018 10 16 N/A
10:53 am 10:53 Sunny 43 6.1 30 -1.1 60 60 ENE 6 9 30.04 1017 10 16 N/A
11:53 am 11:53 Sunny 49 9.4 34 1.1 56 56 NE 13 20 30.00 1016 10 16 N/A
12:53 pm 12:53 Sunny 52 11.1 36 2.2 55 55 ENE 9 15 29.96 1014 10 16 N/A
1:53 pm 13:53 Mostly Cloudy 54 12.2 39 3.9 57 57 NE 9 15 29.94 1014 10 16 N/A
2:53 pm 14:53 Mostly Cloudy 56 13.3 40 4.4 55 55 ENE 10 17 29.92 1013 10 16 N/A
3:53 pm 15:53 Sunny 55 12.8 40 4.4 57 57 ENE 9 15 29.91 1013 10 16 N/A
4:53 pm 16:53 Cloudy 54 12.2 41 5 62 62 ENE 10 17 29.88 1012 10 16 N/A
5:53 pm 17:53 Mostly Cloudy 54 12.2 41 5 62 62 ENE 12 19 29.87 1012 10 16 N/A
6:53 pm 18:53 Mostly Cloudy 52 11.1 41 5 66 66 NE 9 15 29.86 1011 10 16 N/A
7:53 pm 19:53 Mostly Cloudy 51 10.6 40 4.4 66 66 NE 10 17 29.83 1010 10 16 N/A
8:53 pm 20:53 Cloudy 51 10.6 40 4.4 66 66 NE 14 22 29.81 1010 10 16 N/A
9:53 pm 21:53 Cloudy 51 10.6 40 4.4 66 66 NE 14 22 29.79 1009 10 16 N/A
10:53 pm 22:53 Mostly Cloudy 50 10 39 3.9 66 66 NE 14 22 29.74 1007 10 16 N/A
11:53 pm 23:53 Cloudy with Light Rain 48 8.9 39 3.9 71 71 NE 9 15 29.72 1007 8 13 N/A

Powered by AerisWeather